#timestamp,LO_Frequency,Hit 
1504234815.2,286047004.7,N
1504234835.0,286047004.0,N
1504234835.9,286047004.0,N
1504234855.7,286046999.6,N
1504234875.6,286046996.6,N
1504234895.4,286047005.8,N
1504234915.2,286047010.6,N
1504234935.1,286047008.8,N
1504234936.0,286047008.8,N
1504234955.8,286047006.2,N
1504234975.6,286047006.8,N
1504234995.5,286047006.1,N
1504235015.3,286047007.0,N
1504235035.1,286047008.7,N
1504235055.9,286047007.9,N
1504235075.7,286047006.1,N
1504235095.5,286047008.4,N
1504235115.3,286047008.6,N
1504235135.2,286047005.5,N
1504235155.0,286047001.9,N
1504235155.9,286047001.9,N
1504235175.7,286047000.3,N
1504235195.6,286046998.7,N
1504235215.4,286046996.5,N
1504235235.2,286046996.7,N
1504235255.1,286046996.9,N
1504235256.0,286046996.9,N
1504235275.8,286046998.4,N
1504235295.6,286046996.7,N
1504235315.5,286046995.2,N
1504235335.3,286046995.1,N
1504235355.1,286046997.1,N
1504235375.9,286046997.2,N
1504235395.7,286046995.5,N
1504235415.5,286046995.1,N
1504235435.4,286046996.2,N
1504235455.2,286046993.7,N
1504235475.0,286046996.4,N
1504235475.9,286046996.4,N
1504235495.8,286046991.8,N
1504235515.6,286046993.8,N
1504235535.4,286046997.9,N
1504235555.2,286046996.9,N
1504235575.1,286046994.9,N
1504235576.0,286046994.9,N
1504235595.8,286046995.2,N
1504235615.6,286046995.3,N
1504235635.5,286046997.5,N
1504235655.3,286046995.0,N
1504235675.1,286046995.1,N
1504235695.9,286046996.9,N
1504235715.7,286046996.9,N
1504235735.5,286046998.8,N
1504235755.4,286047004.4,P
1504235775.2,286047005.5,N
1504235795.0,286047000.2,N
1504235795.9,286047000.2,N
1504235815.8,286047002.2,N
1504235835.6,286047001.4,N
1504235855.4,286047003.2,N
1504235875.3,286047005.3,N
1504235895.1,286047005.5,N
1504235896.0,286047005.5,N
1504235915.8,286047007.5,N
1504235935.7,286047005.5,N
1504235955.5,286047005.7,N
1504235975.3,286047005.6,N
1504235995.2,286047010.7,P
1504236015.9,286047002.5,N
1504236035.7,286047007.1,N
1504236055.6,286047007.1,N
1504236075.4,286047004.2,N
1504236095.2,286047000.7,N
1504236115.0,286046998.5,N
1504236116.0,286046998.5,N
1504236135.8,286047001.5,N
1504236155.6,286047010.6,N
1504236175.4,286047011.7,N
1504236195.3,286047013.6,P
1504236215.1,286047003.7,N
1504236235.9,286047002.9,N
1504236255.7,286047001.4,N
1504236275.5,286047000.4,N
1504236295.3,286046996.6,N
1504236315.2,286046997.9,N
1504236335.0,286046997.8,N
1504236335.9,286046997.8,N
1504236355.7,286046995.8,N
1504236375.6,286046997.6,N
1504236395.4,286046998.3,N
1504236415.2,286047001.7,N
1504236435.1,286047004.8,N
1504236436.0,286047004.8,N
1504236455.8,286047003.1,N
1504236475.6,286047004.8,N
1504236495.5,286047001.8,N
1504236515.3,286047001.6,N
1504236535.1,286047004.6,N
1504236555.9,286047008.3,N
1504236575.7,286047009.4,N
1504236595.5,286047006.0,N
1504236615.4,286047004.0,N
1504236635.2,286047001.0,N
1504236655.0,286047002.0,N
1504236655.9,286047002.0,N
1504236675.7,286047000.5,N
1504236695.6,286046998.3,N
1504236715.4,286046998.7,N
1504236735.2,286047004.2,N
1504236755.1,286047002.7,N
1504236756.0,286047002.7,N
1504236775.8,286046998.5,N
1504236795.6,286046999.0,N
1504236815.5,286046998.9,N
1504236835.3,286046997.2,N
1504236855.1,286046999.6,N
1504236875.9,286046995.3,N
1504236895.7,286046993.3,N
1504236915.5,286046995.1,N
1504236935.4,286046996.3,N
1504236955.2,286046998.9,N
1504236975.0,286046997.9,N
1504236975.9,286046997.9,N
1504236995.8,286046995.0,N
1504237015.6,286046996.3,N
1504237035.4,286046993.4,N
1504237055.2,286046995.6,N
1504237075.1,286046995.8,N
1504237076.0,286046995.8,N
1504237095.8,286046997.6,N
1504237115.6,286046995.5,N
1504237135.5,286047000.7,N
1504237155.3,286047000.9,N
1504237175.1,286047000.4,N
1504237195.9,286046996.9,N
1504237215.7,286046998.6,N
1504237235.5,286047000.4,N
1504237255.4,286047000.7,N
1504237275.2,286046998.2,N
1504237295.0,286047000.7,N
1504237295.9,286047000.7,N
1504237315.8,286047000.4,N
1504237335.6,286047001.1,N
1504237355.4,286046995.0,N
1504237375.2,286046997.6,N
1504237395.1,286046999.8,N
1504237396.0,286046999.8,N
1504237415.8,286047003.9,N
1504237435.6,286047000.3,N
1504237455.5,286047002.1,N
1504237475.3,286047000.8,N
1504237495.1,286046998.8,N
1504237515.9,286046999.0,N
1504237535.7,286046996.5,N
1504237555.5,286046997.4,N
1504237575.4,286046998.2,N
1504237595.2,286046998.2,N
1504237615.0,286047001.0,N
1504237615.9,286047001.0,N
1504237635.8,286046996.9,N
1504237655.6,286046999.3,N
1504237675.4,286046996.6,N
1504237695.3,286046996.7,N
1504237715.1,286046996.5,N
1504237716.0,286046996.5,N
1504237735.8,286047000.7,N
1504237755.6,286047001.1,N
1504237775.5,286046998.7,N
1504237795.3,286046998.7,N
1504237815.1,286046999.4,N
1504237835.9,286046999.5,N
1504237855.7,286046999.2,N
1504237875.5,286046998.2,N
1504237895.4,286047002.2,N
1504237915.2,286046999.8,N
1504237935.0,286046998.1,N
1504237935.9,286046998.1,N
1504237955.8,286047002.1,N
1504237975.6,286047000.2,N
1504237995.4,286047000.9,N
1504238015.3,286047000.0,N
1504238035.1,286047004.3,N
1504238036.0,286047004.3,N
1504238055.8,286047004.0,N
1504238075.7,286047002.4,N
1504238095.5,286047001.0,N
1504238115.3,286046998.5,N
1504238135.1,286046998.9,N
1504238155.9,286046998.2,N
1504238175.7,286046998.5,N
1504238195.5,286046999.0,N
1504238215.4,286046996.8,N
1504238235.2,286047000.5,N
1504238255.0,286047000.5,N
1504238255.9,286047000.5,N
1504238275.8,286046998.6,N
1504238295.6,286046998.4,N
1504238315.4,286047001.0,N
1504238335.3,286047000.0,N
1504238355.1,286047000.7,N
1504238356.0,286047000.7,N
1504238375.8,286047003.9,N
1504238395.7,286047003.1,N
